User: anonymous   Login
Location: Hickory_Viewmont
(35.7830°N, 81.3170°W)
Time: 00:00:02
(UTC-04:00)
Language:

Okean-O - Orbit

View from above orbital plane
View from above orbital plane
View from above satellite
View from above satellite

Ground track
Ground track

The orbit data is extracted from the following two-line orbital elements,

1 25860U 99039A   16178.88202662  .00000095  00000-0  21312-4 0  9995
2 25860  98.1442 153.8187 0001314 111.6496 248.4853 14.76368489911406
Epoch (UTC): 26 June 2016 21:10:07
Eccentricity: 0.0001314
inclination: 98.1442°
perigee height: 640 km
apogee height: 642 km
right ascension of ascending node: 153.8187°
argument of perigee: 111.6496°
revolutions per day: 14.76368489
mean anomaly at epoch: 248.4853°
orbit number at epoch: 91140

The dashed part of the orbit path shows where the satellite is in the earth's shadow,  

DLR